| time (UTC) | temp F | wind direction | speed knots | gust knots | rain 1hr in | rain 24hr in | rain mn in | humidity % | barometer mb |
| 20260506201005 | 55 | 255 | 4.3 | 8.7 | 0.00 | 0.33 | 0.07 | 37 | 1012.8 |
| 20260506200005 | 56 | 275 | 4.3 | 11.3 | 0.00 | 0.34 | 0.07 | 39 | 1012.9 |
| 20260506195005 | 55 | 254 | 0.9 | 6.1 | 0.00 | 0.35 | 0.07 | 36 | 1012.8 |
| 20260506194004 | 55 | 257 | 0.9 | 4.3 | 0.00 | 0.36 | 0.07 | 40 | 1012.8 |
| 20260506193005 | 55 | 259 | 0.9 | 6.1 | 0.00 | 0.37 | 0.07 | 39 | 1012.9 |
| 20260506185005 | 56 | 272 | 0.0 | 0.0 | 0.00 | 0.41 | 0.07 | 38 | 1013.1 |
| 20260506184005 | 56 | 331 | 0.9 | 8.7 | 0.00 | 0.41 | 0.07 | 38 | 1013.0 |
| 20260506183006 | 56 | 268 | 1.7 | 7.8 | 0.00 | 0.42 | 0.07 | 38 | 1012.8 |
| 20260506182004 | 56 | 0 | 1.7 | 8.7 | 0.00 | 0.43 | 0.07 | 41 | 1013.0 |
| 20260506181005 | 57 | 301 | 1.7 | 6.1 | 0.00 | 0.43 | 0.07 | 38 | 1012.7 |
| 20260506180006 | 57 | 258 | 3.5 | 7.8 | 0.00 | 0.44 | 0.07 | 37 | 1012.7 |
| 20260506175005 | 57 | 255 | 5.2 | 6.1 | 0.00 | 0.44 | 0.07 | 40 | 1012.7 |
| 20260506174005 | 57 | 272 | 3.5 | 6.1 | 0.00 | 0.44 | 0.07 | 41 | 1012.7 |
| 20260506173004 | 56 | 247 | 4.3 | 8.7 | 0.00 | 0.44 | 0.07 | 40 | 1012.8 |
| 20260506172005 | 56 | 273 | 1.7 | 6.1 | 0.00 | 0.44 | 0.07 | 43 | 1012.7 |
| 20260506171005 | 57 | 263 | 1.7 | 8.7 | 0.00 | 0.44 | 0.07 | 45 | 1013.0 |
| 20260506170005 | 57 | 259 | 1.7 | 8.7 | 0.00 | 0.44 | 0.07 | 44 | 1012.9 |
| 20260506165005 | 57 | 250 | 0.0 | 0.0 | 0.00 | 0.44 | 0.07 | 41 | 1013.2 |
| 20260506164004 | 56 | 328 | 0.0 | 0.0 | 0.00 | 0.44 | 0.07 | 47 | 1013.1 |
| 20260506163004 | 56 | 24 | 0.0 | 0.0 | 0.00 | 0.44 | 0.07 | 45 | 1013.2 |
| 20260506162005 | 56 | 248 | 0.0 | 0.0 | 0.00 | 0.44 | 0.07 | 46 | 1013.0 |
| 20260506161005 | 55 | 246 | 0.0 | 0.0 | 0.00 | 0.44 | 0.07 | 46 | 1013.2 |
| 20260506160005 | 55 | 314 | 0.0 | 0.0 | 0.00 | 0.44 | 0.07 | 46 | 1013.0 |
| 20260506155005 | 55 | 334 | 0.0 | 0.0 | 0.00 | 0.44 | 0.07 | 48 | 1013.2 |
| 20260506154004 | 55 | 0 | 0.0 | 0.0 | 0.00 | 0.44 | 0.07 | 49 | 1012.9 |
| 20260506153004 | 54 | 23 | 0.0 | 0.0 | 0.00 | 0.44 | 0.07 | 45 | 1013.0 |
| 20260506152005 | 54 | 345 | 0.0 | 0.0 | 0.00 | 0.44 | 0.07 | 51 | 1012.6 |
| 20260506151004 | 53 | 357 | 0.0 | 0.0 | 0.00 | 0.44 | 0.07 | 50 | 1013.0 |
| 20260506150005 | 53 | 10 | 0.0 | 0.0 | 0.00 | 0.44 | 0.07 | 50 | 1012.6 |
| 20260506145006 | 53 | 7 | 0.0 | 0.0 | 0.00 | 0.44 | 0.07 | 53 | 1012.5 |
| 20260506144005 | 53 | 348 | 0.0 | 0.0 | 0.00 | 0.44 | 0.07 | 56 | 1012.6 |
| 20260506143005 | 52 | 1 | 0.0 | 0.0 | 0.00 | 0.44 | 0.07 | 53 | 1012.2 |
| 20260506142004 | 52 | 358 | 0.0 | 0.0 | 0.00 | 0.44 | 0.07 | 57 | 1012.2 |
| 20260506141004 | 52 | 18 | 0.0 | 0.0 | 0.00 | 0.44 | 0.07 | 58 | 1011.9 |
| 20260506140004 | 52 | 359 | 0.0 | 0.0 | 0.00 | 0.44 | 0.07 | 56 | 1011.9 |
| 20260506135005 | 51 | 18 | 0.0 | 4.3 | 0.00 | 0.44 | 0.07 | 62 | 1012.3 |
| 20260506134004 | 50 | 49 | 0.0 | 0.0 | 0.00 | 0.44 | 0.07 | 66 | 1012.2 |
| 20260506133004 | 50 | 347 | 0.9 | 8.7 | 0.00 | 0.44 | 0.07 | 67 | 1011.9 |
| 20260506131004 | 48 | 44 | 0.0 | 0.0 | 0.00 | 0.44 | 0.07 | 84 | 1011.7 |
| 20260506130005 | 47 | 34 | 0.0 | 6.1 | 0.00 | 0.44 | 0.07 | 91 | 1011.5 |
| 20260506125004 | 46 | 62 | 0.0 | 4.3 | 0.00 | 0.44 | 0.07 | 93 | 1011.5 |
| 20260506123004 | 45 | 252 | 0.0 | 0.0 | 0.00 | 0.44 | 0.07 | 94 | 1011.3 |
| 20260506122004 | 45 | 236 | 0.0 | 0.0 | 0.00 | 0.44 | 0.07 | 94 | 1011.2 |
| 20260506121005 | 45 | 236 | 0.0 | 0.0 | 0.00 | 0.44 | 0.07 | 94 | 1011.1 |
| 20260506120004 | 45 | 238 | 0.0 | 0.0 | 0.00 | 0.44 | 0.07 | 94 | 1010.8 |
| 20260506115004 | 45 | 246 | 0.0 | 0.0 | 0.00 | 0.44 | 0.07 | 94 | 1010.6 |
| 20260506114004 | 45 | 233 | 0.0 | 0.0 | 0.00 | 0.44 | 0.07 | 94 | 1010.6 |
| 20260506112004 | 44 | 233 | 0.0 | 0.0 | 0.00 | 0.44 | 0.07 | 94 | 1010.5 |
| 20260506111004 | 45 | 233 | 0.0 | 0.0 | 0.00 | 0.44 | 0.07 | 93 | 1010.3 |
| 20260506110004 | 45 | 233 | 0.0 | 4.3 | 0.00 | 0.44 | 0.07 | 94 | 1010.1 |
| 20260506105004 | 45 | 234 | 0.9 | 5.2 | 0.00 | 0.44 | 0.07 | 93 | 1010.1 |
| 20260506104004 | 44 | 232 | 2.6 | 6.1 | 0.00 | 0.44 | 0.07 | 94 | 1010.1 |
| 20260506103004 | 44 | 233 | 0.0 | 0.0 | 0.00 | 0.44 | 0.07 | 93 | 1009.6 |
| 20260506102004 | 44 | 233 | 0.0 | 0.0 | 0.00 | 0.44 | 0.07 | 93 | 1009.5 |
| 20260506101004 | 44 | 233 | 0.0 | 0.9 | 0.00 | 0.44 | 0.07 | 93 | 1009.3 |
| 20260506100004 | 44 | 233 | 0.0 | 0.0 | 0.00 | 0.44 | 0.07 | 93 | 1009.5 |
| 20260506095004 | 44 | 233 | 0.0 | 0.0 | 0.00 | 0.44 | 0.07 | 93 | 1009.7 |
| 20260506094004 | 44 | 234 | 0.0 | 0.0 | 0.00 | 0.44 | 0.07 | 93 | 1009.3 |
| 20260506093004 | 44 | 238 | 0.0 | 0.0 | 0.00 | 0.44 | 0.07 | 93 | 1009.4 |
| 20260506092003 | 44 | 237 | 0.0 | 0.0 | 0.00 | 0.44 | 0.07 | 93 | 1009.0 |
| 20260506091004 | 44 | 237 | 0.0 | 0.0 | 0.00 | 0.44 | 0.07 | 93 | 1009.1 |
| 20260506090004 | 44 | 239 | 0.0 | 0.0 | 0.00 | 0.44 | 0.07 | 93 | 1009.4 |
| 20260506085004 | 45 | 268 | 0.9 | 4.3 | 0.01 | 0.44 | 0.07 | 93 | 1009.9 |
| 20260506083004 | 44 | 22 | 0.0 | 0.0 | 0.01 | 0.44 | 0.07 | 93 | 1009.3 |
| 20260506082004 | 44 | 20 | 0.0 | 0.0 | 0.01 | 0.44 | 0.07 | 93 | 1009.2 |
| 20260506081004 | 44 | 21 | 0.0 | 0.0 | 0.02 | 0.44 | 0.07 | 93 | 1009.3 |
| 20260506073006 | 44 | 23 | 0.0 | 0.0 | 0.02 | 0.43 | 0.06 | 93 | 1008.9 |
| 20260506072006 | 44 | 27 | 0.0 | 0.0 | 0.03 | 0.43 | 0.06 | 93 | 1009.5 |
| 20260506071006 | 44 | 28 | 0.0 | 0.0 | 0.03 | 0.42 | 0.05 | 92 | 1009.6 |
| 20260506061006 | 44 | 34 | 0.0 | 0.0 | 0.01 | 0.39 | 0.02 | 92 | 1009.9 |
| 20260506051006 | 45 | 11 | 0.0 | 0.0 | 0.01 | 0.38 | 0.01 | 92 | 1009.7 |
| 20260506045006 | 45 | 13 | 0.0 | 0.0 | 0.02 | 0.38 | 0.01 | 92 | 1009.7 |
| 20260506044009 | 45 | 21 | 0.0 | 0.0 | 0.02 | 0.38 | 0.01 | 92 | 1009.5 |
| 20260506043006 | 45 | 26 | 0.0 | 0.0 | 0.01 | 0.37 | 0.00 | 92 | 1009.3 |
| 20260506042006 | 45 | 32 | 0.0 | 0.0 | 0.01 | 0.37 | 0.00 | 92 | 1009.5 |
| 20260506041006 | 45 | 22 | 0.0 | 0.0 | 0.01 | 0.37 | 0.00 | 92 | 1009.4 |
| 20260506040006 | 45 | 17 | 0.0 | 0.0 | 0.02 | 0.37 | 0.00 | 92 | 1009.6 |
| 20260506035005 | 45 | 20 | 0.0 | 0.0 | 0.01 | 0.36 | 0.36 | 93 | 1009.5 |
| 20260506033005 | 45 | 22 | 0.0 | 0.0 | 0.01 | 0.36 | 0.36 | 92 | 1009.4 |
| 20260506032006 | 45 | 27 | 0.0 | 0.0 | 0.01 | 0.36 | 0.36 | 92 | 1009.3 |
| 20260506031006 | 45 | 11 | 0.0 | 0.0 | 0.02 | 0.36 | 0.36 | 92 | 1009.4 |
| 20260506030006 | 46 | 42 | 0.0 | 2.6 | 0.01 | 0.35 | 0.35 | 92 | 1009.4 |
| 20260506025006 | 48 | 286 | 0.0 | 0.0 | 0.02 | 0.35 | 0.35 | 93 | 1009.7 |
| 20260506024006 | 48 | 278 | 0.0 | 0.0 | 0.03 | 0.35 | 0.35 | 93 | 1009.4 |
| 20260506023006 | 49 | 278 | 0.0 | 0.0 | 0.04 | 0.35 | 0.35 | 92 | 1009.4 |
| 20260506022006 | 49 | 278 | 0.0 | 0.0 | 0.04 | 0.35 | 0.35 | 93 | 1009.5 |
| 20260506021006 | 49 | 278 | 0.0 | 0.0 | 0.04 | 0.34 | 0.34 | 92 | 1009.3 |
| 20260506020005 | 49 | 278 | 0.0 | 0.0 | 0.04 | 0.34 | 0.34 | 93 | 1009.4 |
| 20260506015006 | 49 | 278 | 0.0 | 0.0 | 0.04 | 0.33 | 0.33 | 93 | 1009.5 |
| 20260506014006 | 49 | 278 | 0.0 | 0.0 | 0.03 | 0.32 | 0.32 | 93 | 1009.3 |
| 20260506013006 | 49 | 278 | 0.0 | 0.0 | 0.03 | 0.31 | 0.31 | 93 | 1009.2 |
| 20260506012005 | 49 | 278 | 0.0 | 0.0 | 0.03 | 0.31 | 0.31 | 92 | 1009.1 |
| 20260506011006 | 49 | 278 | 0.0 | 0.0 | 0.02 | 0.30 | 0.30 | 92 | 1008.9 |
| 20260506010005 | 49 | 278 | 0.0 | 0.0 | 0.02 | 0.30 | 0.30 | 92 | 1008.9 |
| 20260506005006 | 49 | 278 | 0.0 | 0.0 | 0.02 | 0.29 | 0.29 | 92 | 1008.8 |
| 20260506004005 | 49 | 278 | 0.0 | 0.0 | 0.02 | 0.29 | 0.29 | 92 | 1009.0 |
| 20260506003005 | 49 | 278 | 0.0 | 0.0 | 0.02 | 0.28 | 0.28 | 92 | 1008.6 |
| 20260506001005 | 49 | 278 | 0.0 | 0.0 | 0.04 | 0.28 | 0.28 | 92 | 1008.9 |
| 20260506000007 | 49 | 278 | 0.0 | 0.0 | 0.05 | 0.28 | 0.28 | 92 | 1008.8 |
| 20260505235005 | 49 | 300 | 0.0 | 2.6 | 0.06 | 0.27 | 0.27 | 91 | 1008.9 |
| 20260505234006 | 49 | 302 | 0.0 | 0.9 | 0.06 | 0.27 | 0.27 | 91 | 1008.8 |
| 20260505233007 | 49 | 302 | 0.0 | 2.6 | 0.06 | 0.26 | 0.26 | 90 | 1008.6 |
| 20260505223005 | 49 | 0 | 0.0 | 0.0 | 0.03 | 0.20 | 0.20 | 89 | 1008.5 |
| 20260505222006 | 50 | 0 | 0.0 | 0.0 | 0.04 | 0.20 | 0.20 | 89 | 1008.0 |
| 20260505221005 | 50 | 0 | 0.0 | 0.0 | 0.04 | 0.20 | 0.20 | 89 | 1008.6 |
| 20260505220006 | 50 | 0 | 0.0 | 0.0 | 0.05 | 0.20 | 0.20 | 88 | 1008.3 |
| 20260505215006 | 50 | 0 | 0.0 | 0.0 | 0.05 | 0.19 | 0.19 | 89 | 1008.4 |
| 20260505214006 | 50 | 0 | 0.0 | 0.0 | 0.05 | 0.18 | 0.18 | 88 | 1008.3 |
| 20260505213005 | 50 | 0 | 0.0 | 0.0 | 0.05 | 0.17 | 0.17 | 87 | 1008.4 |
| 20260505212006 | 50 | 0 | 0.0 | 0.0 | 0.04 | 0.16 | 0.16 | 87 | 1008.3 |
| 20260505211005 | 50 | 0 | 0.0 | 0.0 | 0.05 | 0.16 | 0.16 | 87 | 1008.3 |
| 20260505210005 | 50 | 0 | 0.0 | 0.0 | 0.05 | 0.15 | 0.15 | 87 | 1008.4 |
| 20260505205006 | 50 | 0 | 0.0 | 2.6 | 0.05 | 0.14 | 0.14 | 86 | 1008.5 |
| 20260505204006 | 50 | 354 | 0.0 | 2.6 | 0.05 | 0.13 | 0.13 | 85 | 1008.7 |
| 20260505203005 | 50 | 19 | 0.0 | 0.0 | 0.05 | 0.12 | 0.12 | 86 | 1008.6 |
| 20260505202005 | 51 | 0 | 0.0 | 2.6 | 0.07 | 0.12 | 0.12 | 86 | 1008.6 |